Content
SEND FEEDBACK

Daily
Averages
Monthly
Summary
United States of America

EMPORIA, KANSAS


Home > North America > United States > Kansas
Elevation: 1204 feet     Latitude: 38 19N     Longitude: 096 11W

WEATHER
 
SELECT A DAY
Number of Records: 197,630;   Date Range: 1/1/95 - 9/18/14
 
SHARE

PRINT THIS DATA

[ ← Previous Day ]
WEATHER ALMANAC - MARCH 5, 2013
[ Next Day → ]
[ °C ]   °F
Weather ElementAverageHighLow
Temperature32.6 °F39 °F (2:53 pm)25 °F (11:53 pm)
Dewpoint20.9 °F32 °F (1:53 am)14 °F (6:53 am)
Humidity63 %89 % (1:53 am)48 % (4:53 pm)
Barometer30.26 in30.42 in (11:53 pm)30.06 in (2:24 am)
Wind Speed16.6 mph25.3 mph (8:53 am)
Wind Gust35.7 mph (12:53 pm)
Weather ElementAverage
Visibility9.7 mi
Wind DirectionNNW (323.8 °)

Weather ElementTotal
Precipitation---
Heating Degree Days33 (Base 65)
Averaged from 26 records on March 5, 2013
WEATHER CONDITIONS BREAKOUT
WIND DIRECTION BREAKOUT
WEATHER BY HOUR - MARCH 5, 2013
[ °C ]   °F
Local TimeTemperatureDewpointHumidityBarometerVisibilityWind DirectionWind SpeedGust SpeedPrecipitationEventsConditions
1:53 AM35.1 °F32.0 °F89 %30.09 in8.0 miNW (320°)13.8 mphOvercast
2:24 AM35.6 °F32.0 °F87 %30.06 in7.0 miNNW (340°)10.4 mphOvercast
2:34 AM35.6 °F32.0 °F87 %30.07 in7.0 miNNW (330°)11.5 mph0.00 inRainLight Rain
2:53 AM34.0 °F27.0 °F75 %30.11 in10.0 miNNW (330°)17.3 mph27.6 mph0.00 inOvercast
3:00 AM33.8 °F26.6 °F75 %30.09 in10.0 miNW (320°)24.2 mph29.9 mphOvercast
3:53 AM32.0 °F18.0 °F56 %30.16 in10.0 miNW (320°)23.0 mph33.4 mphMostly Cloudy
4:53 AM28.9 °F16.0 °F58 %30.19 in10.0 miNW (320°)18.4 mph29.9 mphClear
5:53 AM28.0 °F15.1 °F58 %30.21 in10.0 miNW (310°)19.6 mph25.3 mphClear
6:53 AM27.0 °F14.0 °F58 %30.22 in10.0 miNW (320°)16.1 mph25.3 mphClear
7:53 AM28.0 °F16.0 °F61 %30.25 in10.0 miNW (320°)20.7 mph29.9 mphClear
8:53 AM30.0 °F17.1 °F59 %30.26 in10.0 miNNW (330°)25.3 mph34.5 mphClear
9:53 AM30.9 °F18.0 °F59 %30.27 in10.0 miNW (320°)24.2 mph34.5 mphClear
10:53 AM33.1 °F19.0 °F56 %30.28 in10.0 miNW (320°)19.6 mph33.4 mphClear
11:53 AM35.1 °F21.0 °F57 %30.30 in10.0 miNW (310°)17.3 mph26.5 mphPartly Cloudy
12:53 PM37.0 °F21.0 °F52 %30.29 in10.0 miNW (320°)24.2 mph35.7 mphPartly Cloudy
1:53 PM37.9 °F21.0 °F51 %30.28 in10.0 miNW (320°)24.2 mph33.4 mphClear
2:53 PM39.0 °F21.9 °F50 %30.29 in10.0 miNW (310°)20.7 mph31.1 mphPartly Cloudy
3:53 PM39.0 °F21.0 °F49 %30.30 in10.0 miNW (320°)21.9 mph32.2 mphClear
4:53 PM37.9 °F19.9 °F48 %30.31 in10.0 miNNW (330°)21.9 mph27.6 mphClear
5:53 PM36.0 °F19.9 °F52 %30.32 in10.0 miNNW (330°)15.0 mph21.9 mphClear
6:53 PM34.0 °F19.9 °F56 %30.35 in10.0 miNNW (330°)10.4 mphClear
7:53 PM32.0 °F19.9 °F61 %30.37 in10.0 miNW (310°)8.1 mphClear
8:53 PM28.9 °F19.9 °F69 %30.40 in10.0 miNNW (340°)4.6 mphClear
9:53 PM28.0 °F19.0 °F69 %30.41 in10.0 miNNW (340°)6.9 mphClear
10:53 PM26.1 °F18.0 °F71 %30.41 in10.0 miNNW (340°)5.8 mphClear
11:53 PM25.0 °F18.0 °F75 %30.42 in10.0 miNW (320°)5.8 mphClear
Hourly data recorded from KEMP, located miles away from Emporia, Kansas







STORIES FROM OUR PARTNERS